{"data":{"norad_id":42828,"intl_designator":"2017-042D","name":"NORSAT 2","alt_names":[],"object_type":"PAYLOAD","status":"ACTIVE","operator":null,"country":"NOR","launch_date":"2017-07-14","launch_site_code":"TYMSC","launch_vehicle":null,"mission":null,"orbit_class":"UNKNOWN","rcs_meters":null,"size_class":null,"mass_kg":null,"dimensions":null,"purposes":[],"wikipedia_slug":null,"has_3d_model":false,"image_url":null,"decayed_at":null,"tle_current":{"epoch":"2026-09-19T22:00:07.994016Z","epoch_age_seconds":98758,"freshness":"FRESH","line1":"1 42828U 17042D   26262.91675919  .00006898  00000+0  29112-3 0  9991","line2":"2 42828  97.4109  75.0168 0010467  80.1786 280.0633 15.23553105502156","mean_motion":15.23553105,"eccentricity":0.0010467,"inclination_deg":97.4109,"raan_deg":75.0168,"arg_perigee_deg":80.1786,"mean_anomaly_deg":280.0633,"bstar":0.00029112,"rev_number":50215,"period_min":94.515904649087,"perigee_km":487.9393668223,"apogee_km":502.32787153649,"semimajor_km":6873.2706191794,"source":"CELESTRAK","updated_at":"2026-09-20T09:00:14.216249Z"}}}